| time (UTC) | temp C | wind direction | speed KPH | gust KPH | rain 1hr cm | rain 24hr cm | rain mn cm | humidity % | barometer mb |
| 20260505153003 | 22 | 194 | 11.3 | 22.5 | 0.00 | 0.00 | 0.00 | 89 | 1010.1 |
| 20260505152524 | 22 | 193 | 11.3 | 27.4 | 0.00 | 0.00 | 0.00 | 89 | 1010.0 |
| 20260505152024 | 22 | 196 | 11.3 | 27.4 | 0.00 | 0.00 | 0.00 | 90 | 1010.2 |
| 20260505151524 | 22 | 187 | 9.7 | 22.5 | 0.00 | 0.00 | 0.00 | 90 | 1010.0 |
| 20260505151003 | 22 | 174 | 8.0 | 22.5 | 0.00 | 0.00 | 0.00 | 90 | 1009.9 |
| 20260505150505 | 22 | 179 | 9.7 | 22.5 | 0.00 | 0.00 | 0.00 | 90 | 1009.9 |
| 20260505140503 | 22 | 190 | 11.3 | 25.7 | 0.00 | 0.00 | 0.00 | 90 | 1009.7 |
| 20260505125025 | 21 | 181 | 12.9 | 37.0 | 0.00 | 0.00 | 0.00 | 90 | 1008.9 |
| 20260505124504 | 21 | 180 | 12.9 | 27.4 | 0.00 | 0.00 | 0.00 | 90 | 1008.9 |
| 20260505124004 | 21 | 172 | 11.3 | 27.4 | 0.00 | 0.00 | 0.00 | 90 | 1008.8 |
| 20260505123504 | 21 | 172 | 12.9 | 27.4 | 0.00 | 0.00 | 0.00 | 90 | 1008.8 |
| 20260505123004 | 21 | 173 | 12.9 | 29.0 | 0.00 | 0.00 | 0.00 | 90 | 1008.7 |
| 20260505122504 | 21 | 173 | 12.9 | 29.0 | 0.00 | 0.00 | 0.00 | 90 | 1008.7 |
| 20260505122004 | 21 | 170 | 11.3 | 29.0 | 0.00 | 0.00 | 0.00 | 90 | 1008.6 |
| 20260505121504 | 21 | 178 | 12.9 | 32.2 | 0.00 | 0.00 | 0.00 | 90 | 1008.6 |
| 20260505121004 | 21 | 182 | 12.9 | 32.2 | 0.00 | 0.00 | 0.00 | 90 | 1008.6 |
| 20260505120504 | 21 | 179 | 11.3 | 22.5 | 0.00 | 0.00 | 0.00 | 90 | 1008.6 |
| 20260505120004 | 21 | 179 | 12.9 | 30.6 | 0.00 | 0.00 | 0.00 | 90 | 1008.5 |
| 20260505115504 | 21 | 180 | 12.9 | 35.4 | 0.00 | 0.00 | 0.00 | 90 | 1008.5 |
| 20260505115004 | 21 | 177 | 11.3 | 35.4 | 0.00 | 0.00 | 0.00 | 90 | 1008.5 |
| 20260505114504 | 21 | 175 | 11.3 | 22.5 | 0.00 | 0.00 | 0.00 | 90 | 1008.4 |
| 20260505114004 | 21 | 175 | 11.3 | 25.7 | 0.00 | 0.00 | 0.00 | 90 | 1008.2 |
| 20260505113525 | 21 | 175 | 12.9 | 29.0 | 0.00 | 0.00 | 0.00 | 90 | 1008.2 |
| 20260505113004 | 21 | 177 | 12.9 | 29.0 | 0.00 | 0.00 | 0.00 | 89 | 1008.4 |
| 20260505112503 | 21 | 176 | 11.3 | 27.4 | 0.00 | 0.00 | 0.00 | 89 | 1008.5 |
| 20260505112004 | 21 | 175 | 11.3 | 27.4 | 0.00 | 0.00 | 0.00 | 89 | 1008.6 |
| 20260505111503 | 21 | 177 | 12.9 | 30.6 | 0.00 | 0.00 | 0.00 | 89 | 1008.5 |
| 20260505111004 | 21 | 180 | 12.9 | 30.6 | 0.00 | 0.00 | 0.00 | 89 | 1008.4 |
| 20260505110503 | 21 | 180 | 11.3 | 30.6 | 0.00 | 0.00 | 0.00 | 89 | 1008.6 |
| 20260505102024 | 21 | 181 | 17.7 | 35.4 | 0.00 | 0.00 | 0.00 | 89 | 1008.6 |
| 20260505101503 | 21 | 178 | 16.1 | 35.4 | 0.00 | 0.00 | 0.00 | 89 | 1008.6 |
| 20260505101004 | 21 | 182 | 16.1 | 35.4 | 0.00 | 0.00 | 0.00 | 88 | 1008.7 |
| 20260505100504 | 21 | 185 | 17.7 | 35.4 | 0.00 | 0.00 | 0.00 | 88 | 1008.9 |
| 20260505100004 | 21 | 181 | 17.7 | 35.4 | 0.00 | 0.00 | 0.00 | 88 | 1009.0 |
| 20260505095504 | 21 | 180 | 17.7 | 40.2 | 0.00 | 0.00 | 0.00 | 88 | 1008.6 |
| 20260505095004 | 21 | 180 | 19.3 | 40.2 | 0.00 | 0.00 | 0.00 | 88 | 1008.5 |
| 20260505094504 | 21 | 179 | 19.3 | 40.2 | 0.00 | 0.00 | 0.00 | 88 | 1008.5 |
| 20260505094003 | 21 | 179 | 17.7 | 40.2 | 0.00 | 0.00 | 0.00 | 88 | 1008.7 |
| 20260505093504 | 21 | 178 | 17.7 | 45.1 | 0.00 | 0.00 | 0.00 | 88 | 1008.6 |
| 20260505093004 | 21 | 178 | 16.1 | 45.1 | 0.00 | 0.00 | 0.00 | 88 | 1008.7 |
| 20260505092503 | 21 | 183 | 16.1 | 41.8 | 0.00 | 0.00 | 0.00 | 88 | 1008.9 |
| 20260505092004 | 21 | 184 | 16.1 | 41.8 | 0.00 | 0.00 | 0.00 | 88 | 1008.7 |
| 20260505091503 | 21 | 180 | 16.1 | 37.0 | 0.00 | 0.00 | 0.00 | 88 | 1008.6 |
| 20260505091004 | 21 | 179 | 12.9 | 32.2 | 0.00 | 0.00 | 0.00 | 87 | 1008.7 |
| 20260505090525 | 21 | 175 | 16.1 | 40.2 | 0.00 | 0.00 | 0.00 | 87 | 1008.7 |
| 20260505090004 | 21 | 178 | 17.7 | 40.2 | 0.00 | 0.00 | 0.00 | 87 | 1008.8 |
| 20260505085503 | 21 | 179 | 16.1 | 27.4 | 0.00 | 0.00 | 0.00 | 87 | 1008.8 |
| 20260505085004 | 21 | 179 | 16.1 | 30.6 | 0.00 | 0.00 | 0.00 | 87 | 1009.1 |
| 20260505084503 | 21 | 177 | 16.1 | 30.6 | 0.00 | 0.00 | 0.00 | 87 | 1008.9 |
| 20260505084004 | 21 | 177 | 16.1 | 30.6 | 0.00 | 0.00 | 0.00 | 87 | 1008.8 |
| 20260505083503 | 21 | 179 | 16.1 | 30.6 | 0.00 | 0.00 | 0.00 | 87 | 1008.8 |
| 20260505083003 | 21 | 181 | 16.1 | 30.6 | 0.00 | 0.00 | 0.00 | 87 | 1009.0 |
| 20260505082503 | 21 | 182 | 17.7 | 38.6 | 0.00 | 0.00 | 0.00 | 87 | 1009.2 |
| 20260505082025 | 21 | 179 | 17.7 | 38.6 | 0.00 | 0.00 | 0.00 | 87 | 1009.3 |
| 20260505081504 | 21 | 177 | 16.1 | 29.0 | 0.00 | 0.00 | 0.00 | 87 | 1009.3 |
| 20260505081003 | 21 | 177 | 16.1 | 37.0 | 0.00 | 0.00 | 0.00 | 87 | 1009.3 |
| 20260505080504 | 21 | 179 | 16.1 | 37.0 | 0.00 | 0.00 | 0.00 | 87 | 1009.3 |
| 20260505080004 | 21 | 181 | 12.9 | 32.2 | 0.00 | 0.00 | 0.00 | 87 | 1009.4 |
| 20260505075503 | 21 | 183 | 16.1 | 38.6 | 0.00 | 0.00 | 0.00 | 87 | 1009.3 |
| 20260505075003 | 21 | 181 | 16.1 | 38.6 | 0.00 | 0.00 | 0.00 | 87 | 1009.4 |
| 20260505074503 | 21 | 174 | 16.1 | 35.4 | 0.00 | 0.00 | 0.00 | 87 | 1009.5 |
| 20260505074004 | 21 | 175 | 16.1 | 35.4 | 0.00 | 0.00 | 0.00 | 87 | 1009.5 |
| 20260505073503 | 21 | 180 | 16.1 | 37.0 | 0.00 | 0.00 | 0.00 | 87 | 1009.6 |
| 20260505073003 | 21 | 180 | 16.1 | 37.0 | 0.00 | 0.00 | 0.00 | 87 | 1009.7 |
| 20260505072503 | 21 | 175 | 16.1 | 30.6 | 0.00 | 0.00 | 0.00 | 87 | 1009.7 |
| 20260505072003 | 21 | 170 | 17.7 | 32.2 | 0.00 | 0.00 | 0.00 | 86 | 1009.8 |
| 20260505071504 | 21 | 172 | 17.7 | 37.0 | 0.00 | 0.00 | 0.00 | 86 | 1009.8 |
| 20260505071004 | 21 | 175 | 16.1 | 37.0 | 0.00 | 0.00 | 0.00 | 86 | 1009.9 |
| 20260505070503 | 21 | 178 | 17.7 | 30.6 | 0.00 | 0.00 | 0.00 | 86 | 1010.0 |
| 20260505070004 | 21 | 179 | 17.7 | 35.4 | 0.00 | 0.00 | 0.00 | 86 | 1010.0 |
| 20260505065503 | 21 | 176 | 17.7 | 37.0 | 0.00 | 0.00 | 0.00 | 86 | 1010.1 |
| 20260505065003 | 21 | 178 | 17.7 | 37.0 | 0.00 | 0.00 | 0.00 | 86 | 1010.1 |
| 20260505064524 | 21 | 180 | 17.7 | 37.0 | 0.00 | 0.00 | 0.00 | 86 | 1010.2 |
| 20260505064004 | 21 | 181 | 16.1 | 32.2 | 0.00 | 0.00 | 0.00 | 86 | 1010.2 |
| 20260505063525 | 21 | 172 | 17.7 | 32.2 | 0.00 | 0.00 | 0.00 | 86 | 1010.2 |
| 20260505063003 | 21 | 169 | 16.1 | 32.2 | 0.00 | 0.00 | 0.00 | 86 | 1010.4 |
| 20260505062503 | 21 | 174 | 12.9 | 32.2 | 0.00 | 0.00 | 0.00 | 86 | 1010.5 |
| 20260505062004 | 21 | 175 | 16.1 | 32.2 | 0.00 | 0.00 | 0.00 | 86 | 1010.6 |
| 20260505061525 | 21 | 176 | 16.1 | 32.2 | 0.00 | 0.00 | 0.00 | 86 | 1010.7 |
| 20260505061024 | 21 | 176 | 16.1 | 37.0 | 0.00 | 0.00 | 0.00 | 86 | 1010.7 |
| 20260505060503 | 21 | 175 | 16.1 | 37.0 | 0.00 | 0.00 | 0.00 | 86 | 1010.6 |
| 20260505060004 | 22 | 171 | 12.9 | 30.6 | 0.00 | 0.00 | 0.00 | 85 | 1010.7 |
| 20260505055503 | 22 | 175 | 16.1 | 32.2 | 0.00 | 0.00 | 0.00 | 86 | 1010.7 |
| 20260505055003 | 22 | 175 | 17.7 | 32.2 | 0.00 | 0.00 | 0.00 | 85 | 1010.7 |
| 20260505054504 | 22 | 173 | 17.7 | 32.2 | 0.00 | 0.00 | 0.00 | 85 | 1010.7 |
| 20260505054003 | 22 | 173 | 16.1 | 32.2 | 0.00 | 0.00 | 0.00 | 85 | 1010.6 |
| 20260505053504 | 22 | 172 | 16.1 | 30.6 | 0.00 | 0.00 | 0.00 | 85 | 1010.7 |
| 20260505053004 | 22 | 171 | 16.1 | 37.0 | 0.00 | 0.00 | 0.00 | 85 | 1010.6 |
| 20260505052503 | 22 | 174 | 17.7 | 37.0 | 0.00 | 0.00 | 0.00 | 85 | 1010.6 |
| 20260505052024 | 22 | 171 | 17.7 | 37.0 | 0.00 | 0.00 | 0.00 | 85 | 1010.6 |
| 20260505051503 | 22 | 166 | 16.1 | 32.2 | 0.00 | 0.00 | 0.00 | 85 | 1010.5 |
| 20260505051003 | 22 | 172 | 16.1 | 38.6 | 0.00 | 0.00 | 0.00 | 85 | 1010.5 |
| 20260505050504 | 22 | 173 | 17.7 | 38.6 | 0.00 | 0.00 | 0.00 | 85 | 1010.5 |
| 20260505041503 | 22 | 158 | 11.3 | 27.4 | 0.00 | 0.00 | 0.00 | 83 | 1010.5 |
| 20260505041003 | 22 | 159 | 11.3 | 22.5 | 0.00 | 0.00 | 0.00 | 83 | 1010.6 |
| 20260505040504 | 22 | 164 | 11.3 | 22.5 | 0.00 | 0.00 | 0.00 | 82 | 1010.5 |
| 20260505040024 | 22 | 163 | 11.3 | 29.0 | 0.00 | 0.00 | 0.00 | 82 | 1010.6 |
| 20260505035503 | 22 | 165 | 12.9 | 35.4 | 0.00 | 0.00 | 0.00 | 82 | 1010.6 |
| 20260505035003 | 22 | 169 | 12.9 | 35.4 | 0.00 | 0.00 | 0.00 | 81 | 1010.7 |
| 20260505034503 | 23 | 163 | 12.9 | 30.6 | 0.00 | 0.00 | 0.00 | 81 | 1010.6 |
| 20260505034003 | 23 | 161 | 11.3 | 30.6 | 0.00 | 0.00 | 0.00 | 81 | 1010.6 |
| 20260505033503 | 23 | 166 | 8.0 | 22.5 | 0.00 | 0.00 | 0.00 | 81 | 1010.5 |
| 20260505033024 | 23 | 164 | 9.7 | 22.5 | 0.00 | 0.00 | 0.00 | 81 | 1010.6 |
| 20260505032503 | 23 | 160 | 11.3 | 19.3 | 0.00 | 0.00 | 0.00 | 80 | 1010.4 |
| 20260505032003 | 23 | 166 | 12.9 | 29.0 | 0.00 | 0.00 | 0.00 | 80 | 1010.4 |
| 20260505031503 | 23 | 170 | 16.1 | 29.0 | 0.00 | 0.00 | 0.00 | 80 | 1010.3 |
| 20260505031003 | 23 | 167 | 11.3 | 25.7 | 0.00 | 0.00 | 0.00 | 80 | 1010.5 |
| 20260505030503 | 23 | 161 | 12.9 | 27.4 | 0.00 | 0.00 | 0.00 | 79 | 1010.6 |
| 20260505030004 | 23 | 161 | 12.9 | 27.4 | 0.00 | 0.00 | 0.00 | 79 | 1010.6 |
| 20260505025503 | 23 | 164 | 9.7 | 25.7 | 0.00 | 0.00 | 0.00 | 79 | 1010.6 |
| 20260505025003 | 23 | 163 | 9.7 | 22.5 | 0.00 | 0.00 | 0.00 | 78 | 1010.5 |
| 20260505024524 | 23 | 164 | 9.7 | 20.9 | 0.00 | 0.00 | 0.00 | 78 | 1010.5 |
| 20260505024003 | 23 | 162 | 8.0 | 19.3 | 0.00 | 0.00 | 0.00 | 78 | 1010.6 |
| 20260505023503 | 23 | 163 | 8.0 | 19.3 | 0.00 | 0.00 | 0.00 | 78 | 1010.5 |
| 20260505023003 | 23 | 167 | 9.7 | 19.3 | 0.00 | 0.00 | 0.00 | 77 | 1010.5 |
| 20260505022503 | 24 | 170 | 8.0 | 16.1 | 0.00 | 0.00 | 0.00 | 77 | 1010.5 |
| 20260505022024 | 24 | 162 | 8.0 | 16.1 | 0.00 | 0.00 | 0.00 | 77 | 1010.5 |